YD2APR-13 Weather Reports


time (UTC)temp
F
wind
direction
speed
knots
gust
knots
rain 1hr
in
rain 24hr
in
rain mn
in
humidity
%
barometer
mb
20260509211019 75 0.0 0.0 0.00 0.00 0.00 91 1014.0
20260509210018 74 0.0 0.0 0.00 0.00 0.00 91 1013.9
20260509205018 79 0.0 0.0 0.00 0.00 0.00 91 996.6
20260509204021 79 0.0 0.0 0.00 0.00 0.00 92 996.7
20260509203018 79 0.0 0.0 0.00 0.00 0.00 92 996.8
20260509202018 79 0.0 0.0 0.00 0.00 0.00 91 996.7
20260509201020 79 0.0 0.0 0.00 0.00 0.00 91 996.7
20260509200018 74 0.0 0.0 0.00 0.00 0.00 91 1014.3
20260509195018 79 0.0 0.0 0.00 0.00 0.00 91 997.0
20260509194021 75 0.0 0.0 0.00 0.00 0.00 91 1014.4
20260509193018 74 0.0 0.0 0.00 0.00 0.00 92 1014.4
20260509192018 75 0.0 0.0 0.00 0.00 0.00 92 1014.5
20260509191018 75 0.0 0.0 0.00 0.00 0.00 91 1014.7
20260509190018 79 0.0 0.0 0.00 0.00 0.00 91 997.4
20260509185018 75 0.0 0.0 0.00 0.00 0.00 91 1014.9
20260509184018 75 0.0 0.0 0.00 0.00 0.00 91 1015.1
20260509183018 75 0.0 0.0 0.00 0.00 0.00 90 1015.2
20260509182018 75 0.0 0.0 0.00 0.00 0.00 90 1015.3
20260509181018 75 0.0 0.0 0.00 0.00 0.00 91 1015.4
20260509180018 75 0.0 0.0 0.00 0.00 0.00 91 1015.5
20260509175018 80 0.0 0.0 0.00 0.00 0.00 91 998.2
20260509174021 75 0.0 0.0 0.00 0.00 0.00 91 1015.7
20260509173018 75 0.0 0.0 0.00 0.00 0.00 91 1015.8
20260509172018 75 0.0 0.0 0.00 0.00 0.00 90 1015.9
20260509171018 75 0.0 0.0 0.00 0.00 0.00 90 1016.0
20260509170014 80 0.0 0.0 0.00 0.00 0.00 90 998.8
20260509165018 80 0.0 0.0 0.00 0.00 0.00 90 998.8
20260509164013 80 0.0 0.0 0.00 0.00 0.00 90 998.9
20260509163013 80 0.0 0.0 0.00 0.00 0.00 90 999.0
20260509162013 80 0.0 0.0 0.00 0.00 0.00 90 999.0
20260509161013 80 0.0 0.0 0.00 0.00 0.00 89 1016.4
20260509160013 75 0.0 0.0 0.00 0.00 0.00 90 1016.4
20260509155013 89 0.0 0.0 0.00 0.00 0.00 90 964.2
20260509154013 75 0.0 0.0 0.00 0.00 0.00 89 1016.4
20260509153014 75 0.0 0.0 0.00 0.00 0.00 89 1016.4
20260509152013 75 0.0 0.0 0.00 0.00 0.00 89 1016.4
20260509151014 75 0.0 0.0 0.00 0.00 0.00 89 1016.4
20260509150013 75 0.0 0.0 0.00 0.00 0.00 89 1016.3
20260509145013 74 0.0 0.0 0.00 0.00 0.00 88 1016.1
20260509144013 74 0.0 0.0 0.00 0.00 0.00 88 1016.1
20260509143013 75 0.0 0.0 0.00 0.00 0.00 88 1016.1
20260509142013 75 0.0 0.0 0.00 0.00 0.00 88 1016.2
20260509141013 75 0.0 0.0 0.00 0.00 0.00 88 1016.2
20260509140013 75 0.0 0.0 0.00 0.00 0.00 88 1016.3
20260509135013 75 0.0 0.0 0.00 0.00 0.00 87 1016.3
20260509134013 75 0.0 0.0 0.00 0.00 0.00 87 1016.4
20260509133013 76 0.0 0.0 0.00 0.00 0.00 85 1016.3
20260509132013 76 0.0 0.0 0.00 0.00 0.00 82 1016.3
20260509131013 75 0.0 0.0 0.00 0.00 0.00 83 1016.2
20260509130013 75 0.0 0.0 0.00 0.00 0.00 84 1015.9
20260509125013 75 0.0 0.0 0.00 0.00 0.00 85 1015.6
20260509124013 75 0.0 0.0 0.00 0.00 0.00 85 1015.4
20260509123013 75 0.0 0.0 0.00 0.00 0.00 84 1015.3
20260509122013 75 0.0 0.0 0.00 0.00 0.00 84 1015.3
20260509121013 76 0.0 0.0 0.00 0.00 0.00 83 1015.3
20260509120653 74 0.0 0.0 0.00 0.00 0.00 84 1015.2
20260509115653 74 0.0 0.0 0.00 0.00 0.00 83 1015.1
20260509114653 74 0.0 0.0 0.00 0.00 0.00 83 1014.9
20260509113653 75 0.0 0.0 0.00 0.00 0.00 83 1014.7
20260509112653 77 0.0 0.0 0.00 0.00 0.00 78 1014.5
20260509111653 77 0.0 0.0 0.00 0.00 0.00 77 1014.3
20260509110654 79 0.0 0.0 0.00 0.00 0.00 78 1014.2
20260509105653 79 0.0 0.0 0.00 0.00 0.00 80 1014.2
20260509104653 85 0.0 0.0 0.00 0.00 0.00 78 996.6
20260509103653 80 0.0 0.0 0.00 0.00 0.00 79 1013.6
20260509102653 82 0.0 0.0 0.00 0.00 0.00 76 1013.4
20260509101653 82 0.0 0.0 0.00 0.00 0.00 73 1013.5
20260509100653 83 0.0 0.0 0.00 0.00 0.00 70 1013.4
20260509095653 84 0.0 0.0 0.00 0.00 0.00 69 1013.3
20260509094653 85 0.0 0.0 0.00 0.00 0.00 67 1013.3
20260509093653 86 0.0 0.0 0.00 0.00 0.00 65 1013.3
20260509092653 87 0.0 0.0 0.00 0.00 0.00 63 1013.3
20260509091653 87 0.0 0.0 0.00 0.00 0.00 61 1013.2
20260509090653 88 0.0 0.0 0.00 0.00 0.00 60 1013.1
20260509085653 90 0.0 0.0 0.00 0.00 0.00 57 1013.0
20260509084653 90 0.0 0.0 0.00 0.00 0.00 56 1013.1
20260509083653 89 0.0 0.0 0.00 0.00 0.00 59 1013.1
20260509082653 90 0.0 0.0 0.00 0.00 0.00 57 1013.0
20260509081653 91 0.0 0.0 0.00 0.00 0.00 55 1012.9
20260509080653 90 0.0 0.0 0.00 0.00 0.00 55 1012.9
20260509075653 90 0.0 0.0 0.00 0.00 0.00 55 1012.9
20260509074653 90 0.0 0.0 0.00 0.00 0.00 55 1012.9
20260509074638 91 0.0 0.0 0.00 0.00 0.00 54 1012.8
20260509074616 91 0.0 0.0 0.00 0.00 0.00 54 1012.8
20260509073159 93 0.0 0.0 0.00 0.00 0.00 50 1012.9
20260509072159 93 0.0 0.0 0.00 0.00 0.00 50 1012.9
20260509071159 93 0.0 0.0 0.00 0.00 0.00 52 1013.0
20260509070158 92 0.0 0.0 0.00 0.00 0.00 53 1013.0
20260509065158 95 0.0 0.0 0.00 0.00 0.00 50 1013.2
20260509064158 96 0.0 0.0 0.00 0.00 0.00 48 1013.3
20260509063158 94 0.0 0.0 0.00 0.00 0.00 51 1013.4
20260509062158 92 0.0 0.0 0.00 0.00 0.00 54 1013.5
20260509061158 94 0.0 0.0 0.00 0.00 0.00 52 1013.5
20260509060158 94 0.0 0.0 0.00 0.00 0.00 51 1013.7
20260509055158 93 0.0 0.0 0.00 0.00 0.00 54 1013.7
20260509054158 92 0.0 0.0 0.00 0.00 0.00 54 1013.9
20260509053158 91 0.0 0.0 0.00 0.00 0.00 56 1014.0
20260509052158 93 0.0 0.0 0.00 0.00 0.00 54 1014.1
20260509051158 94 0.0 0.0 0.00 0.00 0.00 53 1014.2
20260509050158 93 0.0 0.0 0.00 0.00 0.00 53 1014.3
20260509045158 93 0.0 0.0 0.00 0.00 0.00 53 1014.4
20260509044158 93 0.0 0.0 0.00 0.00 0.00 53 1014.5
20260509043200 93 0.0 0.0 0.00 0.00 0.00 51 1014.6
20260509042158 93 0.0 0.0 0.00 0.00 0.00 52 1014.8
20260509041158 92 0.0 0.0 0.00 0.00 0.00 53 1014.9
20260509040158 91 0.0 0.0 0.00 0.00 0.00 55 1015.1
20260509035158 93 0.0 0.0 0.00 0.00 0.00 53 1015.2
20260509034158 92 0.0 0.0 0.00 0.00 0.00 52 1015.4
20260509033158 92 0.0 0.0 0.00 0.00 0.00 52 1015.6
20260509032158 93 0.0 0.0 0.00 0.00 0.00 53 1015.7
20260509031158 92 0.0 0.0 0.00 0.00 0.00 53 1015.9
20260509030158 91 0.0 0.0 0.00 0.00 0.00 55 1016.1
20260509025158 88 0.0 0.0 0.00 0.00 0.00 59 1016.1
20260509024158 87 0.0 0.0 0.00 0.00 0.00 60 1016.1
20260509023231 88 0.0 0.0 0.00 0.00 0.00 59 1016.2
20260509023158 88 0.0 0.0 0.00 0.00 0.00 59 1016.2
20260509022158 89 0.0 0.0 0.00 0.00 0.00 57 1016.2
20260509021158 88 0.0 0.0 0.00 0.00 0.00 59 1016.2
20260509020158 87 0.0 0.0 0.00 0.00 0.00 60 1016.2
20260509015158 87 0.0 0.0 0.00 0.00 0.00 62 1016.2
20260509014158 85 0.0 0.0 0.00 0.00 0.00 63 1016.2
20260509013158 85 0.0 0.0 0.00 0.00 0.00 64 1016.3
20260509012158 85 0.0 0.0 0.00 0.00 0.00 64 1016.3
20260509011158 84 0.0 0.0 0.00 0.00 0.00 67 1016.3
20260509010158 83 0.0 0.0 0.00 0.00 0.00 68 1016.4
20260509005159 82 0.0 0.0 0.00 0.00 0.00 68 1016.4
20260509004158 82 0.0 0.0 0.00 0.00 0.00 69 1016.3
20260509003158 81 0.0 0.0 0.00 0.00 0.00 70 1016.2
20260509002158 79 0.0 0.0 0.00 0.00 0.00 72 1016.1
20260509001158 78 0.0 0.0 0.00 0.00 0.00 75 1016.1
20260509000158 76 0.0 0.0 0.00 0.00 0.00 79 1016.0
20260508235158 76 0.0 0.0 0.00 0.00 0.00 81 1015.8
20260508234158 75 0.0 0.0 0.00 0.00 0.00 82 1015.7
20260508233158 74 0.0 0.0 0.00 0.00 0.00 83 1015.6
20260508232159 73 0.0 0.0 0.00 0.00 0.00 84 1015.5
20260508231158 73 0.0 0.0 0.00 0.00 0.00 84 1015.3
20260508230159 73 0.0 0.0 0.00 0.00 0.00 84 1015.1
20260508225158 73 0.0 0.0 0.00 0.00 0.00 84 1015.0
20260508224157 73 0.0 0.0 0.00 0.00 0.00 85 1014.9
20260508223157 73 0.0 0.0 0.00 0.00 0.00 86 1014.9
20260508222157 73 0.0 0.0 0.00 0.00 0.00 86 1014.8
20260508221157 73 0.0 0.0 0.00 0.00 0.00 85 1014.8
20260508220157 73 0.0 0.0 0.00 0.00 0.00 84 1014.7
20260508215157 74 0.0 0.0 0.00 0.00 0.00 83 1014.7
20260508214157 74 0.0 0.0 0.00 0.00 0.00 83 1014.6
20260508213157 74 0.0 0.0 0.00 0.00 0.00 83 1014.6
20260508212157 74 0.0 0.0 0.00 0.00 0.00 83 1014.5